Orbital Elements
Epoch 2014 Dec. 9.0 TT = JDT 2457000.5
T 2014 Nov. 19.06919 TT MPCW
q 1.6474086 (2000.0) P Q
n 0.00649966 Peri. 47.38204 +0.30544941 -0.33314132
a 28.4364539 Node 63.12950 +0.26171341 -0.87135094
e 0.9420670 Incl. 89.94883 +0.91553632 +0.36022826
P 152
From 689 observations 2014 Aug. 22-2015 Feb. 27, mean residual 0".5.
|